Вернуться в каталог

SL-8 DEB

АктивенLEO
NORAD 2934·DEBRIS·🇷🇺 Russia

Запущен Mar 15, 1965 с Baikonur Cosmodrome

Loading…

Ближайшие Пролёты (ближайшие 24 часа)

TLE

СвежийSource: Space-Track

Эпоха: Sep 14, 2026, 02:24 UTC

1 02934U 65020EM  26257.10009742  .00000224  00000-0  16617-2 0  9997
2 02934  55.5933 282.3957 0353681  22.5879  11.1830 12.50995881713222

Отслеживайте SL-8 DEB в реальном времени с AllMySat

Download on the App Store